GFSNW_sfc_rhum_246.txt.gz
RH
82 78 76 71 66 66 57 66 99 79 69 87 100 96 31 31 21 24 24 29 29 30 31 28 32 29 26 29 32 42 41 98 80 53 40 42 58 83 97 98 89 76 78 97
80 76 72 68 65 59 61 98 93 64 78 98 93 43 26 22 26 27 30 29 27 27 40 47 28 31 32 33 36 50 52 78 73 45 46 46 69 65 75 90 91 88 82 94
78 72 69 66 64 71 80 94 98 76 78 65 46 39 34 31 24 26 26 27 27 32 33 32 39 26 30 33 32 48 48 77 85 71 81 62 81 80 73 80 90 84 96 86
75 70 67 65 70 79 84 98 80 50 88 77 48 40 33 33 34 27 26 33 32 36 66 34 32 26 30 32 35 42 44 80 47 35 42 43 54 67 78 92 93 91 96 77
72 69 68 68 80 75 71 98 64 43 48 46 45 56 48 35 30 35 32 38 32 46 70 53 73 44 35 34 30 31 32 48 38 43 36 40 52 48 57 67 75 80 70 76
72 72 68 81 82 70 66 67 41 60 52 46 51 50 36 29 32 32 25 27 40 59 34 28 28 31 34 35 39 42 44 48 48 46 30 48 75 87 56 57 65 55 66 77
74 78 81 80 82 68 57 53 49 90 64 49 46 28 26 28 34 38 28 31 38 35 30 32 33 33 32 33 32 32 50 45 46 55 54 84 78 52 49 54 41 35 33 32
85 81 80 82 76 75 59 50 62 97 65 38 33 30 28 29 33 34 34 34 38 36 36 54 45 48 42 35 26 27 29 44 60 61 55 53 33 44 69 59 69 35 30 27
86 84 81 75 75 70 60 57 60 86 83 47 26 40 33 48 43 41 39 36 36 44 52 63 60 38 30 30 31 20 25 34 69 59 58 51 38 21 20 42 91 44 29 29
85 81 78 76 72 62 52 60 68 55 89 29 32 39 47 35 40 49 45 45 51 47 66 75 45 40 28 42 33 31 38 46 64 63 65 48 28 22 23 65 69 34 29 30
86 82 75 72 70 65 58 59 62 47 56 35 26 26 34 32 36 58 50 56 61 65 91 77 55 57 54 39 31 27 41 48 59 51 61 61 27 27 43 44 34 30 30 30
80 76 75 73 71 62 55 56 43 42 42 48 48 46 41 36 26 40 51 56 61 98 90 88 57 52 62 47 48 36 48 50 54 46 75 42 34 29 25 28 32 34 33 29
79 76 76 76 70 65 52 48 51 48 65 51 42 44 39 36 41 42 47 41 44 57 55 76 68 56 43 55 50 42 29 24 49 61 36 30 28 24 32 25 27 26 26 27
78 76 76 72 69 71 54 44 42 43 36 67 57 34 40 35 33 35 40 45 41 46 41 55 52 47 33 37 32 35 30 27 36 36 28 32 32 30 28 25 26 26 25 26
78 76 75 72 67 65 49 44 40 36 43 82 54 40 37 35 35 37 40 45 47 41 47 51 47 34 39 37 36 38 26 30 44 52 28 35 30 28 26 27 26 24 27 30
79 80 79 73 69 60 38 93 36 31 33 45 55 43 42 39 38 40 42 41 44 38 39 40 34 33 44 41 38 26 20 20 22 25 21 24 27 27 23 26 24 24 30 30
76 70 72 70 62 45 44 50 41 52 39 49 53 50 38 37 38 41 42 41 42 42 44 44 41 37 47 51 53 34 26 20 19 20 22 26 24 30 24 23 23 30 25 26
73 77 72 68 66 63 51 47 59 64 28 29 56 56 49 38 49 53 38 49 44 43 44 40 41 38 45 58 34 24 19 18 20 21 20 22 22 24 21 22 24 28 31 33
77 78 78 53 42 58 46 68 72 47 46 69 50 61 70 39 44 46 46 46 67 41 52 47 41 47 56 47 36 29 26 26 25 22 22 22 26 26 24 27 31 36 37 34
76 53 58 100 55 70 69 37 72 64 42 41 47 37 68 43 56 64 56 53 56 64 51 39 51 51 36 30 29 27 28 26 26 31 32 30 34 34 33 35 35 36 35 38
61 70 75 50 77 54 52 88 79 57 58 42 40 40 53 45 60 59 53 62 52 56 47 50 48 51 48 31 40 29 28 27 26 26 27 34 35 37 38 38 37 37 37 42
54 52 47 47 53 56 63 68 52 44 40 38 39 42 38 42 45 53 50 50 46 54 47 56 64 48 32 32 38 30 29 28 28 28 30 34 36 37 37 38 37 42 51 71
47 47 53 60 64 88 75 82 54 71 46 41 42 61 49 48 44 61 53 81 66 39 68 65 57 42 27 28 32 32 31 34 33 32 32 36 40 39 46 45 60 67 64 77
48 63 83 74 83 59 46 39 44 47 48 45 49 57 53 54 61 67 74 54 48 63 69 58 56 36 34 30 36 36 40 54 42 38 38 49 64 68 75 91 84 87 84 94
45 46 70 56 47 45 48 49 48 41 41 46 55 54 53 60 83 58 55 61 63 54 53 74 53 30 29 31 34 38 46 82 71 54 59 98 89 82 92 91 78 69 92 94
40 36 52 48 58 86 83 60 57 41 49 49 48 55 73 67 57 55 67 54 60 59 49 58 42 31 30 32 38 48 52 51 56 54 57 61 85 83 72 76 76 88 91 93
38 59 52 56 58 82 76 57 51 40 56 80 58 88 66 51 56 64 52 66 74 65 61 58 34 32 34 47 56 87 75 64 61 57 58 58 59 75 73 73 70 77 73 90

GFSNW_sfc_rhum_249.txt.gz
RH
90 87 79 68 60 61 70 80 98 89 79 92 100 99 66 35 26 30 33 40 42 44 43 46 43 43 43 38 45 61 66 95 97 95 54 50 67 86 94 94 93 88 92 96
89 86 76 63 60 59 71 98 98 86 90 99 99 76 39 30 33 35 38 41 40 42 52 58 42 44 46 45 50 66 62 88 94 86 66 61 84 82 80 89 91 95 95 96
86 81 69 60 62 71 77 98 98 94 96 94 80 73 49 42 34 35 32 37 40 47 47 46 50 44 43 47 43 52 57 90 88 90 82 80 91 88 82 87 96 95 98 91
82 73 63 60 73 73 84 98 93 75 99 98 88 54 42 41 44 37 37 45 45 52 69 49 50 38 46 41 48 57 66 92 85 67 56 63 70 82 88 96 97 93 94 92
83 77 67 66 69 79 88 99 86 71 76 70 82 68 56 42 37 47 43 52 53 61 77 69 73 53 54 56 42 50 52 70 65 68 53 49 65 65 70 78 88 93 94 82
84 70 61 72 79 78 91 84 54 75 68 70 70 65 46 42 48 42 38 49 62 67 48 45 43 48 47 51 53 55 58 74 74 69 60 70 91 85 73 77 81 76 79 69
73 63 66 80 78 74 72 70 59 95 82 66 59 45 40 44 48 54 40 43 54 47 41 40 41 44 42 48 47 48 61 65 72 82 71 97 78 63 68 75 61 72 59 51
71 68 82 79 81 74 46 65 78 96 79 50 45 45 45 43 46 50 46 49 51 44 47 75 65 74 62 49 41 43 39 68 83 87 84 62 63 66 74 80 87 81 78 41
76 80 82 86 85 77 72 74 75 95 82 63 32 47 47 62 67 59 59 54 51 56 75 87 78 82 64 58 43 30 40 58 87 84 84 86 58 30 36 63 94 70 58 46
79 82 85 87 84 77 74 77 78 83 92 51 38 63 56 60 69 82 67 62 67 70 96 94 91 76 44 66 51 47 64 72 81 89 86 71 40 33 33 78 82 50 38 44
81 83 88 87 79 72 74 76 74 76 78 54 45 41 49 54 75 85 73 79 78 90 95 94 90 87 84 60 48 41 59 75 89 82 85 77 40 38 53 63 50 48 47 48
83 87 88 80 72 71 66 74 67 64 80 81 57 56 58 60 58 74 69 78 81 99 98 97 95 81 88 69 79 41 69 70 82 68 82 67 48 51 39 42 42 47 44 42
87 87 78 73 71 56 69 73 58 74 78 70 70 70 57 45 56 61 81 80 63 81 90 96 96 75 81 91 84 70 47 47 74 68 51 49 51 43 40 41 40 38 35 37
88 79 76 76 65 62 66 69 73 71 68 91 75 46 55 46 50 54 59 60 64 70 76 86 84 82 60 64 61 58 59 48 55 60 54 55 43 41 39 36 37 37 35 39
80 78 75 72 72 74 69 69 67 61 77 95 81 57 48 45 50 57 62 64 69 82 75 78 75 65 65 64 62 67 43 45 64 68 46 52 50 41 35 35 36 41 44 43
73 74 78 79 74 68 70 91 62 47 57 77 90 62 59 56 52 55 58 63 68 71 72 76 66 58 66 68 68 46 40 34 30 37 31 36 40 37 33 33 34 37 42 40
76 75 73 74 71 76 79 75 72 74 70 80 86 81 60 53 56 64 65 60 70 69 78 75 66 66 68 81 77 51 41 38 31 30 29 35 34 42 30 29 30 39 38 44
70 74 72 69 69 72 75 69 76 81 63 65 90 84 74 54 77 80 69 78 73 75 72 70 70 72 75 82 55 46 37 29 30 31 30 31 30 31 30 31 38 45 47 49
73 70 73 77 79 86 69 68 76 79 78 91 85 88 94 62 73 80 75 76 91 73 83 79 70 81 78 64 50 46 42 40 39 34 32 32 35 32 32 44 49 52 50 52
77 71 87 100 79 71 70 77 91 90 69 68 81 81 93 73 86 90 86 83 88 92 82 70 77 80 54 47 47 46 44 41 38 44 45 45 49 52 51 51 50 49 52 57
78 89 92 85 76 78 86 94 85 89 86 74 76 78 76 69 88 90 87 90 86 85 78 76 80 90 69 54 53 40 36 40 38 34 46 48 49 54 55 55 53 54 57 67
76 71 73 77 85 82 79 94 78 74 66 65 74 71 63 76 76 84 86 77 74 73 72 85 88 77 58 55 49 41 38 42 38 37 45 49 48 51 53 52 55 62 68 82
64 71 74 85 86 95 84 90 82 87 73 66 67 76 81 73 78 91 79 78 87 66 90 88 87 70 47 54 49 45 43 44 45 42 48 54 54 54 56 59 73 70 75 84
78 86 94 87 92 85 79 74 74 77 74 75 70 82 88 87 88 94 81 75 72 86 89 79 87 60 53 50 57 51 54 54 58 56 51 58 63 67 68 82 82 85 87 92
64 66 82 84 76 82 82 76 75 68 67 76 82 83 86 93 90 88 78 80 81 82 81 91 77 55 50 55 54 54 62 76 68 66 69 96 86 81 87 88 82 79 91 95
58 53 78 83 92 99 98 88 83 72 78 78 76 84 88 84 85 82 81 75 80 82 81 82 61 49 48 52 57 63 70 74 75 74 72 72 85 85 82 86 87 89 90 93
53 83 78 81 92 97 96 87 80 68 76 91 93 85 78 88 87 86 82 85 90 94 87 74 53 52 52 60 70 80 70 71 74 74 71 69 72 86 86 86 89 88 88 89

GFSNW_sfc_rhum_252.txt.gz
RH
94 90 86 77 66 64 84 92 93 79 81 90 100 98 79 43 32 31 41 43 46 46 48 50 54 55 54 42 50 70 78 92 96 95 64 56 73 94 97 91 89 94 90 89
91 88 84 73 64 61 75 98 95 81 88 98 99 86 62 37 38 37 44 47 46 46 49 58 49 56 51 49 53 61 65 86 91 76 68 58 84 84 88 92 91 95 94 90
91 86 81 75 69 74 80 96 95 93 98 94 88 74 53 45 40 38 38 46 43 48 50 52 55 55 49 48 48 54 61 91 80 91 78 80 90 86 85 90 96 94 96 95
90 88 82 71 72 76 74 97 92 80 94 98 93 70 53 46 46 42 38 50 50 54 68 53 51 51 52 47 52 62 67 86 84 75 67 67 80 82 88 97 97 86 83 96
87 80 70 66 65 80 87 95 93 83 94 88 95 84 60 44 43 49 46 52 54 56 72 61 70 57 57 60 49 58 66 74 68 68 67 59 71 72 78 82 92 93 96 94
84 80 73 76 76 76 90 94 67 81 80 86 92 80 52 43 50 50 43 58 68 65 58 48 48 51 50 51 55 57 61 75 76 77 85 79 95 82 74 75 85 78 82 68
82 77 76 76 80 73 75 76 85 94 91 80 71 53 42 51 48 57 53 49 54 45 44 41 42 45 47 53 54 54 64 65 79 85 89 99 74 65 67 71 74 83 77 70
84 83 75 75 76 71 41 71 83 94 88 65 60 52 50 46 52 54 51 58 50 48 50 75 68 77 64 55 51 53 57 73 82 85 90 64 79 76 78 86 82 74 71 70
77 75 83 76 77 74 73 76 88 94 90 73 41 53 48 60 68 76 68 55 55 61 78 89 81 85 69 68 55 42 52 66 81 87 85 92 69 36 49 62 91 60 73 69
85 82 76 80 76 78 70 80 82 75 91 59 42 59 50 62 74 85 75 65 65 75 98 95 91 86 52 61 57 56 69 74 74 96 88 71 42 37 45 82 74 56 56 48
85 80 80 80 77 73 69 73 75 69 82 65 48 44 59 68 75 80 71 77 81 93 96 92 92 88 79 62 52 46 56 75 84 86 88 76 44 44 49 60 58 46 48 48
80 79 82 80 76 80 74 70 71 71 78 75 64 63 59 45 52 77 76 71 83 91 97 98 95 81 89 74 79 48 64 62 78 71 78 63 52 49 43 47 46 51 46 48
85 87 84 82 72 71 73 73 68 70 74 63 73 64 52 52 52 54 82 89 83 91 84 96 96 73 86 88 85 69 58 55 74 68 52 55 55 52 46 39 39 40 41 42
86 83 81 80 71 77 72 63 72 71 76 89 70 50 52 53 55 58 60 67 76 79 81 90 85 76 65 70 62 67 65 52 55 62 56 54 49 46 40 37 36 43 40 44
80 75 74 73 78 73 65 71 74 64 72 94 80 58 51 55 60 63 64 69 74 86 78 81 76 78 70 74 69 73 50 46 67 71 51 55 52 49 39 38 44 45 43 46
72 72 76 78 78 71 42 90 62 65 67 78 87 71 60 59 62 62 64 69 78 80 80 83 80 64 65 74 70 51 46 44 45 48 43 51 48 44 37 38 46 40 53 53
81 81 78 74 71 71 60 69 64 78 67 83 85 84 63 58 65 74 73 70 79 76 85 79 72 68 68 84 78 50 46 44 44 39 35 44 39 43 36 37 41 51 48 52
79 74 73 72 74 70 65 68 79 79 69 72 92 87 76 62 84 80 81 81 82 75 76 78 75 79 81 83 65 55 48 47 40 34 32 36 39 36 36 44 48 50 53 55
78 81 75 66 74 74 61 67 77 79 73 92 86 87 92 70 82 85 82 86 91 82 82 80 76 82 84 68 58 53 47 39 42 41 35 36 41 42 51 52 51 54 56 60
76 62 75 92 72 72 67 66 76 85 79 80 85 86 92 77 90 94 88 90 90 93 83 81 85 85 65 57 53 52 52 42 39 44 44 49 58 57 57 53 53 53 55 66
79 90 93 82 75 72 88 92 71 81 81 80 90 82 76 78 88 90 88 92 89 90 77 78 81 91 74 58 63 54 44 39 39 42 46 54 56 61 63 60 60 62 63 67
76 74 79 79 82 86 77 85 81 77 64 81 87 78 70 86 84 86 92 80 83 76 79 85 87 78 65 63 56 46 43 42 44 52 55 58 53 60 61 60 62 64 68 83
75 75 76 78 87 91 70 86 86 90 82 80 74 77 84 79 83 91 82 78 83 77 91 86 85 76 59 57 50 50 50 50 51 56 60 62 59 60 61 61 68 74 76 82
77 84 93 81 90 83 86 80 83 79 82 67 72 90 87 92 85 93 76 75 79 87 92 82 87 67 66 62 60 58 58 57 56 58 63 66 68 68 67 80 80 82 84 90
69 74 83 92 79 86 86 84 81 82 64 77 85 87 86 96 86 89 81 85 84 86 85 90 82 67 62 64 63 63 67 75 67 68 69 86 86 79 82 87 81 79 91 90
60 63 81 90 89 95 97 91 85 84 76 83 80 86 88 86 79 86 84 81 86 83 83 80 77 63 61 65 64 67 71 72 71 72 73 76 84 83 78 82 84 89 85 86
60 82 89 91 91 93 98 90 84 79 68 89 91 85 77 89 91 92 87 87 86 85 89 81 63 63 63 68 72 81 77 78 79 79 80 79 78 82 86 86 86 89 84 88

GFSNW_sfc_rhum_255.txt.gz
RH
96 95 93 87 77 68 79 85 91 77 83 89 100 96 72 50 34 36 43 44 47 49 53 58 60 53 50 46 67 70 79 90 93 90 74 67 76 94 98 92 82 96 92 87
94 93 91 90 75 68 73 97 95 81 87 98 99 85 66 41 38 40 45 49 47 46 52 58 53 58 53 50 52 60 75 86 90 71 62 61 85 85 89 95 93 98 98 87
93 92 90 86 70 74 75 94 94 90 95 95 82 73 59 46 45 42 42 49 46 47 52 53 60 57 49 46 54 57 62 90 80 89 74 78 83 85 85 89 94 92 93 88
91 88 87 86 71 76 70 96 92 81 97 99 88 65 51 51 48 45 44 49 50 53 67 54 52 56 55 50 60 67 64 79 82 72 68 71 76 78 86 93 93 86 78 98
89 85 78 73 75 75 84 95 92 93 93 93 86 76 59 49 50 50 46 52 55 54 66 59 68 60 58 60 55 68 69 74 71 71 70 65 71 72 81 78 95 95 96 94
87 83 83 84 80 75 86 95 81 83 89 94 86 86 58 49 53 53 45 56 65 65 54 53 50 52 54 50 52 59 63 74 78 78 89 84 87 84 78 72 84 76 86 71
87 85 82 85 80 78 80 79 86 95 97 87 76 67 50 52 50 58 60 51 52 48 48 45 44 49 48 52 57 54 68 67 80 96 82 100 72 65 68 72 68 78 77 79
86 85 87 83 80 67 51 80 82 95 96 78 69 57 54 56 58 60 56 56 45 51 53 71 66 77 63 58 51 61 58 75 81 88 91 64 74 74 78 84 79 76 78 66
88 86 86 83 75 66 67 78 84 94 91 79 50 64 47 63 74 76 69 58 58 63 81 88 80 82 66 68 60 56 66 68 79 90 79 88 68 44 59 66 91 64 73 68
84 79 82 81 76 73 69 84 77 77 90 64 52 62 50 65 76 87 76 64 70 74 96 95 92 85 66 77 69 64 77 81 81 97 87 70 57 40 55 79 67 52 58 68
83 85 86 84 82 73 69 77 77 68 85 70 52 45 64 74 78 73 73 74 80 94 93 93 93 84 74 65 52 57 64 74 87 88 90 78 49 43 50 58 56 54 52 54
87 84 82 83 80 75 68 78 72 70 77 74 70 60 53 48 55 74 80 68 82 91 95 98 95 88 91 70 73 52 60 59 70 73 80 62 52 47 45 46 47 46 53 47
83 82 80 76 78 76 69 71 68 73 80 67 70 66 58 48 44 55 77 86 81 92 87 96 95 68 82 84 81 64 57 55 74 69 56 55 57 58 52 48 47 43 46 46
81 79 76 79 77 72 70 66 69 71 73 88 69 53 58 62 51 56 60 69 83 86 85 90 86 78 71 78 69 69 66 61 59 63 57 57 52 52 48 44 39 45 43 46
82 76 77 77 77 76 70 74 73 64 71 92 76 60 56 64 59 64 69 70 76 83 75 80 68 78 74 78 73 78 58 55 70 73 53 53 50 52 46 44 46 46 49 57
78 77 77 78 77 69 57 90 58 70 65 77 85 75 61 66 67 68 68 74 82 83 78 79 82 71 69 76 73 54 53 46 47 49 48 55 52 56 44 43 48 48 56 58
81 83 83 80 76 70 67 73 62 73 66 82 82 79 64 64 70 79 75 78 86 79 89 79 74 74 72 82 74 52 49 50 50 48 47 50 45 43 43 46 52 55 56 61
88 83 79 73 74 70 66 69 79 72 69 71 90 86 78 65 83 81 87 84 84 80 82 85 78 82 84 83 68 62 52 51 52 44 39 38 42 43 48 52 51 56 60 62
76 71 65 52 66 76 62 74 70 76 74 91 87 88 94 72 88 87 87 88 88 86 84 82 76 83 85 68 62 56 53 47 46 40 37 45 46 45 55 54 55 58 61 65
55 40 64 91 73 73 62 61 73 83 78 84 83 85 92 79 91 95 90 92 91 93 85 87 88 84 68 60 58 55 54 47 47 47 55 60 60 61 60 56 57 57 58 63
75 90 93 78 74 65 82 83 73 77 67 80 90 83 86 82 86 91 90 93 92 92 82 84 84 91 78 63 66 62 57 52 47 42 46 52 52 62 64 62 62 62 65 68
74 74 79 77 79 84 56 80 76 70 47 84 82 80 81 89 85 89 95 80 87 82 84 90 89 79 64 68 72 61 54 47 44 47 53 62 58 64 64 65 67 67 67 80
72 77 82 77 88 89 50 72 81 91 84 90 79 88 90 88 84 94 86 83 88 81 92 86 83 76 66 65 61 55 52 54 58 61 64 63 64 66 66 66 68 72 76 80
84 83 90 78 94 83 78 68 80 79 83 71 75 94 91 93 86 90 76 76 81 89 94 82 89 72 70 64 64 64 65 65 66 67 68 68 71 71 70 78 79 83 82 88
75 72 81 92 77 82 84 79 88 89 63 76 90 89 88 96 88 89 80 86 88 88 87 91 81 68 70 68 68 66 69 77 72 71 74 82 84 78 81 87 79 78 91 89
61 70 84 92 93 95 97 94 92 89 71 85 82 86 87 88 83 86 84 81 87 83 86 80 80 73 69 68 70 71 72 71 71 75 73 74 82 82 77 78 81 89 87 87
60 84 90 88 88 92 97 91 89 80 59 90 92 84 75 91 91 95 89 91 88 87 83 83 78 71 70 71 72 79 75 75 75 77 80 80 81 83 84 84 82 88 84 87

GFSNW_sfc_rhum_258.txt.gz
RH
93 96 95 91 78 72 76 93 95 65 77 78 98 96 79 54 37 40 43 46 48 52 56 57 60 54 48 50 65 70 76 88 90 82 75 68 76 96 94 90 84 98 92 89
95 95 93 89 81 69 96 97 92 77 82 94 99 86 67 44 38 42 44 50 46 49 52 61 58 57 53 55 59 74 73 85 87 58 59 65 85 86 91 93 94 98 95 85
96 93 92 90 84 78 71 95 94 88 94 93 83 75 59 48 46 45 45 52 47 49 52 56 62 56 52 50 55 58 62 88 77 81 68 75 81 85 84 86 95 93 94 82
95 93 92 90 82 78 73 97 89 78 90 98 81 66 52 50 46 48 47 50 48 51 68 55 54 56 54 50 62 70 63 79 80 68 68 73 72 73 86 89 87 85 74 97
93 92 91 91 90 78 94 93 88 94 95 87 72 73 56 49 53 48 48 50 54 51 67 59 70 61 59 61 64 72 74 74 78 81 76 72 73 70 81 81 96 98 94 93
92 91 92 92 90 80 93 96 80 87 89 89 77 76 57 49 55 53 47 56 62 60 49 50 53 49 57 53 60 65 65 75 79 85 86 87 81 80 78 77 84 76 84 73
92 91 90 92 92 85 68 80 87 94 98 83 68 64 52 56 52 56 61 51 50 51 50 46 50 52 52 54 62 59 72 70 80 98 81 90 69 66 72 74 67 78 73 75
92 90 87 92 91 81 56 88 83 95 99 86 74 57 59 65 62 62 56 54 49 52 47 67 64 77 64 58 55 64 60 75 85 89 95 58 61 74 77 77 70 66 75 71
91 89 87 92 89 77 76 83 87 95 92 87 59 68 51 72 79 76 68 60 60 63 80 84 78 77 59 70 66 65 66 68 84 91 72 76 62 54 65 68 87 64 75 71
88 85 85 91 81 80 77 85 77 81 93 77 50 65 52 70 74 86 74 66 68 72 95 95 91 86 68 80 70 72 79 84 86 98 87 70 53 50 59 72 66 48 65 68
88 86 88 87 81 82 75 82 81 67 85 70 52 48 67 75 76 68 73 73 80 92 89 92 94 87 79 70 62 66 70 81 90 88 92 73 51 60 52 60 54 49 52 55
89 89 88 86 82 76 74 80 73 70 79 71 76 64 55 46 49 73 80 68 79 89 94 98 96 92 91 72 77 55 68 64 73 70 78 61 56 49 47 49 45 46 52 48
89 90 87 83 79 78 71 71 73 78 81 71 72 68 61 46 50 50 75 83 75 86 86 96 95 67 83 85 80 66 51 55 70 66 55 58 56 54 53 49 50 48 48 49
87 86 88 84 80 73 71 66 75 69 77 88 75 56 66 58 53 55 56 76 85 87 85 89 87 76 73 73 66 58 61 59 55 62 59 59 52 53 48 51 53 42 46 49
87 89 88 84 76 73 68 72 75 67 71 94 83 65 61 64 62 68 73 72 77 80 72 75 60 71 73 79 74 81 65 64 71 73 56 54 49 45 54 52 45 47 52 58
86 85 80 74 68 60 61 93 61 64 66 79 88 75 70 72 69 70 70 75 80 81 72 72 80 73 66 78 77 58 59 54 52 49 48 53 51 53 52 47 48 51 56 59
84 80 76 73 79 86 86 77 65 70 68 82 83 80 68 68 73 81 78 82 87 80 87 82 80 82 76 81 74 52 51 53 49 48 48 54 53 49 52 46 52 59 59 64
87 86 84 83 80 81 75 69 78 71 66 69 89 87 80 68 82 83 90 84 84 85 86 90 80 84 86 84 69 62 51 53 56 56 53 45 47 48 53 60 59 62 66 65
88 83 78 82 92 87 67 70 69 71 74 91 88 89 93 76 86 90 87 85 86 86 85 84 77 84 85 66 62 62 61 59 54 57 44 45 49 50 60 58 60 62 64 66
84 81 89 100 83 71 68 63 77 73 77 84 84 84 93 82 90 94 90 91 86 94 86 89 90 84 68 62 61 59 59 54 54 51 55 58 60 61 64 57 59 60 62 66
91 92 92 78 75 60 76 82 82 73 66 82 87 84 92 81 83 88 90 93 92 95 84 87 88 95 80 66 64 65 59 55 50 42 46 50 51 61 68 66 63 65 64 66
74 78 79 76 77 83 49 77 72 61 36 92 83 80 77 89 84 87 95 81 90 81 88 96 95 80 68 68 74 66 64 60 52 48 46 54 55 64 67 67 68 67 65 75
66 75 78 71 88 82 50 64 68 85 81 88 80 87 91 91 86 95 91 87 92 84 95 92 85 77 64 71 74 72 63 59 55 56 62 66 68 69 67 66 68 71 72 77
81 77 75 71 91 69 64 53 72 75 82 72 71 95 90 94 86 92 80 79 84 93 95 82 88 72 66 70 71 66 65 64 64 68 70 71 73 71 71 80 81 83 81 87
81 63 59 84 73 85 84 82 85 86 69 80 89 90 87 96 92 88 83 91 91 89 86 91 80 70 74 69 69 69 70 79 75 75 74 82 84 76 81 88 76 76 91 88
66 72 84 95 90 99 98 92 89 86 70 85 82 85 87 87 84 87 82 80 86 82 87 83 78 74 74 70 72 73 73 72 72 75 74 75 82 79 74 76 79 89 88 87
59 86 91 88 89 93 94 89 85 74 70 89 90 81 75 90 94 96 88 90 88 88 82 83 78 77 75 74 75 80 76 75 75 77 77 75 77 81 81 80 81 86 84 89

GFSNW_sfc_rhum_264.txt.gz
RH
87 95 95 93 91 84 77 95 99 62 64 58 98 96 47 36 22 22 30 30 32 33 32 30 30 29 29 35 38 40 45 86 54 61 49 44 43 100 100 93 91 100 99 86
90 96 94 91 90 82 96 95 87 72 69 99 91 56 38 25 25 25 28 32 30 31 34 50 31 32 36 42 38 46 46 73 76 52 52 48 52 56 68 92 100 97 90 89
95 94 92 92 92 86 91 96 98 84 75 44 50 51 38 34 28 28 29 32 30 33 34 31 39 37 42 39 34 55 43 59 80 53 48 50 92 61 56 74 98 95 87 93
95 93 91 92 89 74 82 87 84 61 91 67 51 43 36 34 32 29 28 32 30 32 67 33 32 33 38 38 58 43 41 81 40 35 36 37 49 46 58 79 76 84 88 76
94 92 92 92 86 78 89 95 66 59 56 51 50 63 46 35 35 33 34 36 29 33 62 38 50 37 34 36 44 39 39 42 39 47 46 43 46 40 44 52 69 80 72 86
94 91 90 92 80 68 78 53 44 53 60 52 55 50 42 37 39 37 29 32 37 45 27 22 24 26 29 32 40 41 39 43 43 37 43 50 62 73 39 48 55 59 66 100
92 91 88 86 87 82 60 49 45 84 75 55 47 40 38 39 37 43 33 31 32 34 29 30 30 31 34 35 35 32 44 38 37 36 42 64 58 31 34 36 35 43 39 31
92 91 89 87 88 76 53 47 50 83 73 44 46 41 40 40 39 38 35 30 29 31 28 37 34 39 34 35 34 35 31 35 54 61 35 25 27 34 46 44 32 26 27 24
92 91 93 94 86 75 73 56 53 77 82 54 38 47 44 49 48 45 48 42 35 29 28 41 41 38 27 34 38 35 37 42 62 56 51 45 26 24 28 32 50 21 22 26
93 93 95 94 91 83 74 74 72 69 85 42 39 46 49 38 40 46 50 48 46 37 45 54 40 38 21 35 32 43 49 54 85 79 82 46 23 28 31 50 43 23 25 26
94 93 94 94 93 87 90 94 69 53 66 48 38 35 45 38 42 53 50 48 51 45 70 59 58 50 48 43 28 35 45 57 73 64 82 87 27 36 38 34 26 25 26 26
93 94 92 93 91 88 86 94 71 58 50 48 44 35 28 28 28 43 48 46 49 86 77 79 61 60 64 46 58 36 49 43 59 53 73 39 35 30 28 23 25 28 27 26
94 94 95 93 94 86 84 92 64 52 53 44 38 40 46 34 33 32 42 44 41 52 51 74 64 54 42 54 42 40 34 30 42 47 27 34 36 27 25 25 25 23 24 26
94 93 94 95 89 78 80 93 66 53 39 65 56 42 52 42 35 36 34 46 56 52 41 51 46 38 38 34 34 33 28 34 32 33 27 34 27 29 26 25 26 26 25 28
92 94 93 89 80 73 73 83 68 55 50 78 54 47 49 44 40 41 43 45 47 37 41 41 36 33 39 36 37 33 30 27 35 38 26 27 23 26 26 26 25 27 30 31
91 93 88 81 81 78 64 94 61 44 32 46 63 54 53 49 45 47 47 44 42 34 31 30 32 45 37 30 25 19 20 21 21 20 24 24 27 26 22 26 25 25 30 29
90 82 82 81 90 96 96 71 41 58 42 54 56 56 52 48 44 47 44 49 46 36 36 35 32 37 41 36 24 14 18 21 22 24 28 32 28 23 23 25 24 34 26 29
89 82 78 78 83 84 80 54 66 56 41 41 64 69 55 48 50 55 48 47 42 46 42 44 36 45 40 40 20 16 12 15 21 25 26 20 22 22 26 26 28 30 32 34
76 75 79 85 92 85 74 70 65 52 48 75 59 60 75 49 54 53 50 44 55 49 46 38 40 34 46 29 19 17 22 25 21 25 26 26 28 26 29 32 32 32 34 39
73 76 90 100 90 73 70 68 70 60 48 50 56 48 70 47 50 61 54 50 44 56 42 44 48 36 26 20 21 23 24 26 26 33 37 34 36 33 34 34 33 32 35 38
95 98 99 94 80 67 78 91 80 57 50 46 54 49 59 53 51 54 48 60 50 52 42 45 37 45 39 26 27 24 26 26 29 29 29 31 32 34 37 39 38 37 38 41
89 88 81 72 75 73 82 80 64 50 40 51 49 50 45 50 46 51 58 43 51 44 48 58 62 40 31 37 43 38 27 29 29 30 30 34 31 32 37 39 42 40 41 67
66 68 82 85 67 83 85 88 55 72 53 58 56 62 49 49 45 62 58 81 67 45 76 71 46 39 37 40 40 44 36 32 33 33 30 32 36 40 43 43 44 50 50 56
76 82 99 82 86 54 48 49 46 42 48 54 47 57 58 58 62 66 76 52 56 73 78 57 49 33 39 42 48 48 44 40 39 36 36 40 52 56 62 99 86 95 78 98
53 54 80 62 49 51 47 48 48 48 46 50 55 53 50 63 85 58 62 73 74 56 49 58 44 40 41 45 50 47 45 69 49 38 43 97 98 68 91 75 57 53 100 99
50 46 56 57 64 83 81 58 59 48 51 46 40 53 67 63 58 65 73 54 62 57 40 44 44 43 45 48 52 51 49 46 43 42 46 52 75 71 52 57 56 100 94 99
50 76 64 57 57 67 66 53 53 47 51 73 56 83 53 55 65 70 52 68 63 50 47 48 44 44 49 50 54 68 54 49 45 47 46 48 49 50 52 56 55 58 57 92

GFSNW_sfc_rhum_267.txt.gz
RH
82 86 85 87 96 94 92 96 100 65 52 62 91 93 33 32 19 21 27 26 28 31 31 27 26 23 22 26 27 31 34 71 48 45 33 32 33 100 100 100 100 100 98 90
83 86 87 89 94 89 97 96 92 73 73 98 92 45 34 23 22 24 29 31 29 28 33 52 24 26 30 31 29 36 34 66 71 45 41 35 40 44 64 100 100 98 91 97
83 87 89 92 94 94 97 97 99 92 64 49 54 44 37 30 23 24 25 29 29 32 33 28 30 33 35 32 28 49 36 49 85 60 45 51 83 47 47 71 100 100 93 100
84 88 90 92 92 97 92 96 88 73 93 66 48 42 33 32 30 26 27 32 32 35 67 31 30 28 33 29 53 32 32 76 34 23 24 24 42 35 44 83 76 89 98 93
85 90 87 92 92 96 96 98 69 60 63 46 46 56 42 33 28 31 32 36 30 33 59 35 42 31 29 32 34 31 29 40 30 37 27 28 30 27 29 40 56 86 67 84
85 91 88 94 91 93 97 62 41 50 61 52 52 51 35 31 31 30 26 30 35 40 29 21 22 23 23 25 32 34 34 40 37 36 29 39 55 59 30 30 39 48 58 100
86 90 88 93 93 86 90 58 40 73 70 52 44 38 30 30 35 40 29 29 35 25 18 21 22 24 24 27 27 27 39 36 33 36 35 73 38 18 27 27 26 29 33 29
87 90 90 94 92 94 67 48 47 67 70 41 37 35 32 31 36 35 33 30 27 25 26 36 35 36 31 28 27 26 25 33 48 55 37 26 21 24 28 30 28 20 22 21
91 86 92 92 91 88 60 55 45 62 71 48 30 38 34 45 44 40 43 30 29 28 26 37 36 37 25 31 28 22 24 30 56 50 48 40 31 17 18 22 46 20 18 19
88 93 94 89 89 87 76 57 60 48 71 34 33 39 44 36 39 46 42 37 35 30 41 54 38 34 20 37 37 41 42 49 85 80 84 50 21 18 21 41 44 20 18 20
95 94 93 90 88 84 67 71 58 50 46 37 32 30 39 37 39 54 45 47 49 43 67 56 43 39 34 31 23 35 44 50 63 62 80 92 20 24 32 30 23 20 21 22
94 95 93 89 88 84 66 57 41 39 39 39 35 29 26 27 29 38 47 42 44 72 73 65 44 51 48 41 46 23 43 41 56 50 72 39 24 27 25 20 22 23 23 21
93 92 90 91 87 84 66 48 46 43 52 44 38 41 33 27 29 34 39 37 33 40 42 56 50 47 38 46 37 38 28 25 42 43 32 29 29 24 20 19 21 19 20 21
90 91 88 91 80 73 68 79 46 41 42 68 54 36 42 30 29 30 29 34 35 37 31 40 39 37 29 32 26 32 26 26 32 34 25 23 22 23 22 18 19 19 19 21
93 92 87 88 82 74 71 80 48 47 54 69 53 42 37 32 31 31 36 40 44 32 34 37 35 25 30 28 30 29 20 27 36 38 24 26 17 22 21 20 19 20 22 23
89 90 87 81 78 70 69 96 77 34 33 45 59 41 42 35 32 34 36 35 32 28 26 27 24 34 33 30 26 16 14 19 19 21 16 19 18 19 14 19 18 18 21 22
82 85 88 84 84 88 92 83 73 54 38 48 54 52 40 36 36 38 37 37 32 28 28 30 27 30 32 27 26 13 11 12 15 14 16 22 18 19 15 17 16 24 18 22
91 92 90 84 81 84 78 65 63 64 33 34 58 61 52 43 43 49 33 38 32 33 31 33 31 34 33 36 18 15 10 9 13 15 16 18 15 16 16 17 17 21 22 24
89 88 88 88 94 96 87 68 70 52 41 64 52 59 70 42 39 43 40 33 47 38 37 32 29 32 42 30 19 13 12 14 12 12 15 18 18 18 18 21 22 24 24 28
82 86 94 100 96 81 77 57 71 46 36 40 48 42 65 42 51 49 46 42 41 51 38 30 44 40 23 18 19 15 15 15 17 21 24 23 23 22 22 24 24 23 24 30
94 98 97 87 82 81 90 90 76 50 48 42 44 47 50 39 51 51 41 51 42 46 38 45 39 40 30 20 20 17 16 17 17 18 22 22 22 25 27 28 28 27 27 34
81 70 72 73 88 94 90 77 57 46 46 46 45 44 43 39 36 44 47 44 43 46 40 50 58 36 22 21 25 21 19 19 19 19 21 24 23 26 28 30 31 31 32 63
51 75 91 88 82 99 87 99 63 74 49 44 46 58 44 42 37 52 48 73 61 34 62 66 45 31 26 28 27 30 27 22 23 20 24 27 28 28 31 32 34 41 46 56
76 84 100 87 94 66 55 53 51 45 51 49 47 50 49 48 52 58 74 47 46 59 72 56 45 29 28 33 35 34 34 27 27 25 27 32 39 44 62 93 83 92 68 97
65 63 90 68 50 46 46 44 45 43 47 45 49 46 47 53 78 48 49 62 68 48 44 53 42 30 33 34 39 36 37 51 35 30 31 86 84 72 85 62 60 56 100 100
37 38 57 53 66 81 79 59 60 47 45 44 34 45 54 52 47 49 75 43 56 52 40 38 37 33 32 35 40 40 39 36 33 30 36 52 81 72 51 58 58 100 91 100
42 66 53 54 58 75 65 55 54 44 46 69 46 74 47 42 54 57 40 54 54 43 44 42 35 35 38 40 43 57 44 38 33 34 36 41 44 40 45 53 53 58 60 92